Weather in Gagarino

Russia / Tula Oblast     53°42′31″N   38°23′03″E
temp.,
°C
wind,
m/s
gust,
m/s
humid.,
%
clouds,
%
prec.,
mm/h
press.,
hPa
HPBL,
m
16 june, wed
wed1600:00+17wnw2291100 2.5 101027
03:00+16nw339171 2.8 101043
06:00+17nw379343 0.0 1010197
09:00+20nnw45806 0.0 1011550
12:00+23nnw67686 0.0 10121153
15:00+23n666744 0.1 10131450
18:00+22n47760 0.1 1014841
21:00+17n36875 0.1 1016113
17 june, thu
thu1700:00+15nne310910 0.0 1018205
03:00+13nne48850 0.0 1020144
06:00+14nne38840 0.0 1021208
09:00+18nne47670 0.0 1022470
12:00+21nne45555 0.0 10231231
15:00+21nne55585 0.0 10231355
18:00+20nne46700 0.0 1024784
21:00+16n33800 0.0 102539
18 june, fri
fri1800:00+13ene34750 0.0 102650
03:00+12ne33754 0.0 102729
06:00+14ne248220 0.0 1028115
09:00+19ene34685 0.0 1028494
12:00+22e34580 0.0 10281272
15:00+22e34572 0.0 10281428
18:00+22e23680 0.0 10271161
21:00+17se11815 0.0 102811
19 june, sat
sat1900:00+15s118412 0.0 102811
03:00+14s118619 0.0 102910
06:00+16se11820 0.0 103044
09:00+20sse22701 0.0 1029448
12:00+23sse33591 0.0 10291141
15:00+24s23570 0.0 10281249
18:00+23s226567 0.0 10271180
21:00+18s11816 0.0 102711
20 june, sun
sun2000:00+17s118458 0.0 102711
03:00+15s22880 0.0 102811
06:00+17s11850 0.0 102849
09:00+22sse11720 0.0 1027531
12:00+24sse22615 0.0 10261220
15:00+25sse225722 0.0 10251359
18:00+25sse126221 0.0 10241348
21:00+20ese117946 0.0 102411